Time,TemperatureF,DewpointF,PressureIn,WindDirection,WindDirectionDegrees,WindSpeedMPH,WindSpeedGustMPH,Humidity,HourlyPrecipIn,Conditions,Clouds,dailyrainin,SoftwareType,DateUTC
2013-10-25 08:11:00,36.0,31.0,30.22,SSW,198,0.0,3.0,83,0.00,,,0.00,,2013-10-25 13:11:00,
2013-10-25 08:21:00,35.0,30.0,30.22,SSW,199,0.0,1.0,83,0.00,,,0.00,,2013-10-25 13:21:00,
2013-10-25 08:41:00,35.0,31.0,30.22,SSW,202,0.0,2.0,84,0.00,,,0.00,,2013-10-25 13:41:00,
2013-10-25 08:52:00,35.0,31.0,30.22,SW,227,0.0,4.0,84,0.00,,,0.00,,2013-10-25 13:52:00,
2013-10-25 09:11:00,35.0,31.0,30.22,SW,229,0.0,2.0,84,0.00,,,0.00,,2013-10-25 14:11:00,
2013-10-25 09:22:00,36.0,32.0,30.23,SW,218,0.0,3.0,84,0.00,,,0.00,,2013-10-25 14:22:00,
2013-10-25 09:42:00,37.0,32.0,30.23,SSE,148,0.0,3.0,81,0.00,,,0.00,,2013-10-25 14:42:00,
2013-10-25 09:52:00,38.0,32.0,30.23,SE,127,0.0,7.0,79,0.00,,,0.00,,2013-10-25 14:52:00,
2013-10-25 10:11:00,40.0,33.0,30.23,South,169,2.0,6.0,77,0.00,,,0.00,,2013-10-25 15:11:00,
2013-10-25 10:21:00,41.0,33.0,30.22,SSE,157,3.0,10.0,74,0.00,,,0.00,,2013-10-25 15:21:00,
2013-10-25 10:43:00,42.0,34.0,30.22,South,181,3.0,12.0,73,0.00,,,0.00,,2013-10-25 15:43:00,
2013-10-25 10:53:00,42.0,33.0,30.21,SSE,164,3.0,10.0,71,0.00,,,0.00,,2013-10-25 15:53:00,
2013-10-25 11:13:00,43.0,34.0,30.21,East,87,2.0,10.0,71,0.00,,,0.00,,2013-10-25 16:13:00,
2013-10-25 11:23:00,43.0,34.0,30.21,East,87,2.0,10.0,71,0.00,,,0.00,,2013-10-25 16:23:00,
2013-10-25 11:43:00,45.0,35.0,30.19,SSE,153,2.0,7.0,68,0.00,,,0.00,,2013-10-25 16:43:00,
2013-10-25 11:53:00,47.0,36.0,30.18,North,5,2.0,11.0,66,0.00,,,0.00,,2013-10-25 16:53:00,
2013-10-25 12:13:00,48.0,36.0,30.17,SE,146,4.0,14.0,64,0.00,,,0.00,,2013-10-25 17:13:00,
2013-10-25 12:22:00,49.0,36.0,30.17,East,98,5.0,8.0,61,0.00,,,0.00,,2013-10-25 17:22:00,
2013-10-25 12:43:00,50.0,38.0,30.16,SSE,159,4.0,11.0,62,0.00,,,0.00,,2013-10-25 17:43:00,
2013-10-25 12:52:00,50.0,36.0,30.14,ESE,115,4.0,10.0,59,0.00,,,0.00,,2013-10-25 17:52:00,
2013-10-25 13:12:00,51.0,37.0,30.14,East,99,6.0,14.0,59,0.00,,,0.00,,2013-10-25 18:12:00,
2013-10-25 13:21:00,52.0,38.0,30.12,ESE,120,5.0,10.0,58,0.00,,,0.00,,2013-10-25 18:21:00,
2013-10-25 13:42:00,53.0,39.0,30.11,SE,134,4.0,14.0,59,0.00,,,0.00,,2013-10-25 18:42:00,
2013-10-25 13:52:00,54.0,39.0,30.09,SSE,148,6.0,10.0,56,0.00,,,0.00,,2013-10-25 18:52:00,
2013-10-25 14:11:00,55.0,39.0,30.08,ESE,119,3.0,10.0,55,0.00,,,0.00,,2013-10-25 19:11:00,
2013-10-25 14:22:00,55.0,39.0,30.07,SE,139,3.0,7.0,55,0.00,,,0.00,,2013-10-25 19:22:00,
2013-10-25 14:42:00,56.0,39.0,30.06,South,191,6.0,11.0,53,0.00,,,0.00,,2013-10-25 19:42:00,
2013-10-25 14:52:00,57.0,40.0,30.05,ESE,123,5.0,12.0,52,0.00,,,0.00,,2013-10-25 19:52:00,
2013-10-25 15:12:00,58.0,40.0,30.04,East,81,1.0,9.0,51,0.00,,,0.00,,2013-10-25 20:12:00,
2013-10-25 15:22:00,58.0,41.0,30.04,ESE,120,3.0,10.0,53,0.00,,,0.00,,2013-10-25 20:22:00,
2013-10-25 15:42:00,58.0,40.0,30.03,SE,143,4.0,11.0,51,0.00,,,0.00,,2013-10-25 20:42:00,
2013-10-25 15:52:00,58.0,40.0,30.02,SSW,212,4.0,10.0,51,0.00,,,0.00,,2013-10-25 20:52:00,
2013-10-25 16:11:00,60.0,42.0,30.01,East,89,2.0,7.0,51,0.00,,,0.00,,2013-10-25 21:11:00,
2013-10-25 16:22:00,61.0,42.0,30.01,SSE,153,3.0,7.0,50,0.00,,,0.00,,2013-10-25 21:22:00,
2013-10-25 16:43:00,61.0,42.0,30.00,SSE,167,2.0,8.0,49,0.00,,,0.00,,2013-10-25 21:43:00,
2013-10-25 16:54:00,62.0,41.0,29.99,ESE,103,2.0,6.0,46,0.00,,,0.00,,2013-10-25 21:54:00,
2013-10-25 17:13:00,62.0,43.0,29.99,ENE,68,1.0,7.0,49,0.00,,,0.00,,2013-10-25 22:13:00,
2013-10-25 17:23:00,62.0,43.0,29.98,SW,214,1.0,5.0,49,0.00,,,0.00,,2013-10-25 22:23:00,
2013-10-25 17:42:00,61.0,41.0,29.98,SE,134,2.0,7.0,47,0.00,,,0.00,,2013-10-25 22:42:00,
2013-10-25 17:53:00,61.0,41.0,29.98,ESE,117,3.0,6.0,47,0.00,,,0.00,,2013-10-25 22:53:00,
2013-10-25 18:12:00,60.0,41.0,29.98,SE,128,2.0,7.0,50,0.00,,,0.00,,2013-10-25 23:12:00,
2013-10-25 18:22:00,59.0,41.0,29.98,South,174,0.0,5.0,51,0.00,,,0.00,,2013-10-25 23:22:00,
2013-10-25 18:42:00,58.0,40.0,29.98,ESE,119,0.0,4.0,52,0.00,,,0.00,,2013-10-25 23:42:00,
2013-10-25 18:52:00,56.0,40.0,29.98,SSE,148,0.0,2.0,55,0.00,,,0.00,,2013-10-25 23:52:00,
2013-10-25 19:11:00,54.0,40.0,29.98,SSE,150,0.0,0.0,58,0.00,,,0.00,,2013-10-26 00:11:00,
2013-10-25 19:22:00,53.0,40.0,29.98,SSE,150,0.0,0.0,62,0.00,,,0.00,,2013-10-26 00:22:00,
2013-10-25 19:42:00,51.0,40.0,29.99,SSE,150,0.0,0.0,65,0.00,,,0.00,,2013-10-26 00:42:00,
2013-10-25 19:52:00,49.0,39.0,29.99,SSE,150,0.0,0.0,68,0.00,,,0.00,,2013-10-26 00:52:00,
2013-10-25 20:12:00,48.0,39.0,29.99,SSE,150,0.0,0.0,70,0.00,,,0.00,,2013-10-26 01:12:00,
2013-10-25 20:22:00,46.0,38.0,30.00,SSE,150,0.0,0.0,73,0.00,,,0.00,,2013-10-26 01:22:00,
2013-10-25 20:42:00,46.0,38.0,30.01,SSE,150,0.0,0.0,73,0.00,,,0.00,,2013-10-26 01:42:00,
2013-10-25 20:52:00,45.0,38.0,30.00,SSE,150,0.0,1.0,76,0.00,,,0.00,,2013-10-26 01:52:00,
2013-10-25 21:12:00,44.0,37.0,30.00,SSE,150,0.0,0.0,75,0.00,,,0.00,,2013-10-26 02:12:00,
2013-10-25 21:22:00,44.0,37.0,30.01,SSE,150,0.0,0.0,77,0.00,,,0.00,,2013-10-26 02:22:00,
2013-10-25 21:43:00,43.0,37.0,30.00,SSE,150,0.0,1.0,78,0.00,,,0.00,,2013-10-26 02:43:00,
2013-10-25 21:52:00,42.0,36.0,30.00,SSE,150,0.0,0.0,80,0.00,,,0.00,,2013-10-26 02:52:00,
2013-10-25 22:12:00,42.0,37.0,30.00,SSE,150,0.0,1.0,81,0.00,,,0.00,,2013-10-26 03:12:00,
2013-10-25 22:22:00,41.0,36.0,30.01,SSE,150,0.0,0.0,81,0.00,,,0.00,,2013-10-26 03:22:00,
2013-10-25 22:44:00,40.0,35.0,30.01,SSE,150,0.0,0.0,82,0.00,,,0.00,,2013-10-26 03:44:00,
2013-10-25 22:54:00,40.0,36.0,30.01,SSE,150,0.0,1.0,84,0.00,,,0.00,,2013-10-26 03:54:00,
2013-10-25 23:14:00,39.0,35.0,30.02,SSE,150,0.0,0.0,84,0.00,,,0.00,,2013-10-26 04:14:00,
2013-10-25 23:24:00,39.0,34.0,30.03,SSE,150,0.0,0.0,83,0.00,,,0.00,,2013-10-26 04:24:00,
2013-10-25 23:44:00,38.0,34.0,30.03,SSE,150,0.0,0.0,84,0.00,,,0.00,,2013-10-26 04:44:00,
2013-10-25 23:54:00,38.0,34.0,30.03,SSE,150,0.0,0.0,85,0.00,,,0.00,,2013-10-26 04:54:00,